Location: The C. Gantt Observatory
(33.6981°N, 81.6836°W)
Time: 07:29:00
(UTC-04:00)

Iridium 30 - Visible Passes

Search period start: 31 July 2014 00:00
Search period end: 10 August 2014 00:00
Orbit: 776 x 779 km, 86.4° (Epoch: 30 July)

Date Brightness Start Highest point End Pass type
(mag) Time Alt. Az. Time Alt. Az. Time Alt. Az.
31 Jul 5.6 05:17:10 10° S 05:22:21 79° E 05:27:34 10° N visible
01 Aug 6.8 04:44:07 10° SSE 04:48:56 40° E 04:53:46 10° NNE visible
02 Aug 7.8 04:11:50 10° SE 04:15:38 21° E 04:19:26 10° NE visible
02 Aug 6.2 05:51:19 10° SSW 05:56:02 35° W 06:00:47 10° NNW visible
03 Aug 8.4 03:41:49 10° E 03:42:27 10° ENE 03:43:05 10° ENE visible
03 Aug 5.5 05:17:57 14° S 05:22:26 69° W 05:27:38 10° N visible
04 Aug 6.0 04:45:04 17° SSE 04:48:57 61° E 04:54:05 10° N visible
05 Aug 7.1 04:12:10 15° SE 04:15:35 31° E 04:20:06 10° NNE visible
05 Aug 6.7 05:52:40 12° SW 05:56:15 24° W 06:00:23 10° NNW visible
06 Aug 8.0 03:39:15 10° ESE 03:42:20 16° E 03:45:24 10° NE visible
06 Aug 5.8 05:19:44 24° SW 05:22:34 45° W 05:27:34 10° NNW visible
07 Aug 5.4 04:46:47 36° S 04:49:01 90° W 04:54:15 10° N visible
08 Aug 6.4 04:13:48 33° SE 04:15:34 46° E 04:20:32 10° NNE visible
08 Aug 7.1 05:54:18 13° WSW 05:56:30 16° WNW 05:59:38 10° NW visible
09 Aug 7.4 03:40:48 21° ESE 03:42:15 24° E 03:46:20 10° NNE visible
09 Aug 6.4 05:21:18 26° WSW 05:22:44 30° W 05:27:19 10° NNW visible
